Location: Unspecified
(0.0000°N, 0.0000°E)
Time: 17:32:27
(UTC+00:00)

Envisat - Pass Details

Date: 28 September 2022
Orbit: 764 x 765 km, 98.2° (Epoch: 26 September)

Event Time Altitude Azimuth Distance (km) Brightness Sun altitude
Rises 03:56:53 0° 11° (N) 3,213 6.3 -28.5°
Reaches altitude 10° 03:59:10 10° 11° (N) 2,290 5.5 -27.9°
Enters shadow 04:03:32 67° 2° (N) 824 3.0 -26.8°
Exits shadow 04:11:13 - 193° (SSW) 3,071 6.0 -24.9°
Sets 04:11:37 0° 193° (SSW) 3,229 6.1 -24.8°
